When you browse on this site, cookies collect data to enhance your experience and personalize the content and advertising you see.
Visit our Privacy Policy to learn more. By continuing to use the site, you agree to this use of cookies and data.
  • Em Portugal
  • Lista de países
  • Para 7 dias
  • Temperatura da água
  • Mapas de satélite
  • Mapa do tempo
  • Widgets de tempo
  • user-avatar
    Iniciar Sessão

    Previsão horária em Sarafovo

    Hoje, 16 Dezembro, Domingo

    Tempo Temperatura Precipitação Vento Pressão Humidade
    00:00 +10°C° 0.2 mm 3 m/s 759 mmHg 95%
    01:00 +10°C° 0.2 mm 3 m/s 759 mmHg 94%
    02:00 +10°C° 0 mm 3 m/s 759 mmHg 94%
    03:00 +10°C° 0.3 mm 3 m/s 759 mmHg 93%
    04:00 +10°C° 0.3 mm 3 m/s 759 mmHg 93%
    05:00 +10°C° 0.3 mm 2 m/s 758 mmHg 93%
    06:00 +10°C° 0.4 mm 2 m/s 758 mmHg 93%
    07:00 +10°C° 0.4 mm 2 m/s 758 mmHg 93%
    08:00 +10°C° 0 mm 3 m/s 758 mmHg 92%
    09:00 +11°C° 0.2 mm 3 m/s 758 mmHg 89%
    10:00 +11°C° 0.2 mm 3 m/s 758 mmHg 87%
    11:00 +12°C° 0.2 mm 3 m/s 758 mmHg 84%
    12:00 +13°C° 0 mm 4 m/s 758 mmHg 82%
    13:00 +13°C° 0 mm 4 m/s 758 mmHg 79%
    14:00 +14°C° 0 mm 4 m/s 757 mmHg 77%
    15:00 +13°C° 0 mm 4 m/s 757 mmHg 82%
    16:00 +12°C° 0 mm 4 m/s 757 mmHg 87%
    17:00 +11°C° 0 mm 4 m/s 757 mmHg 92%
    18:00 +11°C° 0 mm 4 m/s 758 mmHg 93%
    19:00 +10°C° 0 mm 3 m/s 758 mmHg 94%
    20:00 +10°C° 0 mm 3 m/s 758 mmHg 94%
    21:00 +10°C° 0 mm 3 m/s 758 mmHg 94%
    22:00 +10°C° 0 mm 3 m/s 758 mmHg 94%
    23:00 +9°C° 0 mm 3 m/s 759 mmHg 94%

    Amanhã, 17 Dezembro, Segunda-feira

    Tempo Temperatura Precipitação Vento Pressão Humidade
    00:00 +9°C° 0.1 mm 3 m/s 759 mmHg 93%
    01:00 +9°C° 0.1 mm 3 m/s 759 mmHg 92%
    02:00 +9°C° 0.1 mm 3 m/s 759 mmHg 91%
    03:00 +8°C° 0.2 mm 3 m/s 759 mmHg 91%
    04:00 +7°C° 0.2 mm 4 m/s 759 mmHg 90%
    05:00 +7°C° 0.2 mm 4 m/s 759 mmHg 90%
    06:00 +6°C° 0.3 mm 4 m/s 759 mmHg 90%
    07:00 +7°C° 0.3 mm 3 m/s 759 mmHg 89%
    08:00 +7°C° 0.3 mm 3 m/s 759 mmHg 89%
    09:00 +7°C° 0.2 mm 3 m/s 759 mmHg 89%
    10:00 +7°C° 0.2 mm 3 m/s 759 mmHg 89%
    11:00 +7°C° 0.2 mm 3 m/s 759 mmHg 88%
    12:00 +7°C° 0.3 mm 3 m/s 759 mmHg 89%
    13:00 +7°C° 0.3 mm 3 m/s 759 mmHg 89%
    14:00 +7°C° 0.3 mm 3 m/s 759 mmHg 89%
    15:00 +7°C° 0.1 mm 3 m/s 759 mmHg 90%
    16:00 +7°C° 0.1 mm 3 m/s 759 mmHg 90%
    17:00 +7°C° 0.1 mm 3 m/s 759 mmHg 91%
    18:00 +7°C° 0.2 mm 3 m/s 759 mmHg 91%
    19:00 +6°C° 0.2 mm 4 m/s 759 mmHg 92%
    20:00 +6°C° 0.2 mm 4 m/s 759 mmHg 93%
    21:00 +7°C° 0.4 mm 4 m/s 759 mmHg 93%
    22:00 +7°C° 0.4 mm 4 m/s 759 mmHg 94%
    23:00 +7°C° 0.4 mm 5 m/s 759 mmHg 95%

    Depois de amanhã, 18 Dezembro, Terça-feira

    Tempo Temperatura Precipitação Vento Pressão Humidade
    00:00 +7°C° 0.5 mm 5 m/s 759 mmHg 95%
    01:00 +7°C° 0.5 mm 5 m/s 760 mmHg 95%
    02:00 +7°C° 0.5 mm 5 m/s 760 mmHg 95%
    03:00 +7°C° 0.7 mm 6 m/s 760 mmHg 94%
    04:00 +7°C° 0.7 mm 6 m/s 759 mmHg 94%
    05:00 +6°C° 0.7 mm 7 m/s 759 mmHg 93%
    06:00 +6°C° 0.8 mm 7 m/s 760 mmHg 93%
    07:00 +6°C° 0.8 mm 7 m/s 760 mmHg 92%
    08:00 +6°C° 0.8 mm 8 m/s 761 mmHg 91%
    09:00 +5°C° 0.5 mm 8 m/s 761 mmHg 90%
    10:00 +5°C° 0.5 mm 8 m/s 761 mmHg 89%
    11:00 +5°C° 0.5 mm 8 m/s 762 mmHg 88%
    12:00 +4°C° 0.3 mm 8 m/s 762 mmHg 87%
    13:00 +3°C° 0.3 mm 9 m/s 762 mmHg 87%
    14:00 +3°C° 0.3 mm 9 m/s 762 mmHg 86%
    15:00 +2°C° 0.2 mm 9 m/s 762 mmHg 86%
    16:00 +1°C° 0.2 mm 9 m/s 762 mmHg 86%
    17:00 +1°C° 0.2 mm 9 m/s 762 mmHg 86%
    18:00 +1°C° 0.2 mm 9 m/s 763 mmHg 85%
    19:00 0°C° 0.2 mm 9 m/s 763 mmHg 85%
    20:00 0°C° 0.2 mm 8 m/s 764 mmHg 84%
    21:00 -1°C° 0.1 mm 8 m/s 764 mmHg 84%
    22:00 -1°C° 0.1 mm 8 m/s 764 mmHg 84%
    23:00 -2°C° 0.1 mm 8 m/s 765 mmHg 83%

    19 Dezembro, Quarta-feira

    Tempo Temperatura Precipitação Vento Pressão Humidade
    00:00 -2°C° 0.1 mm 8 m/s 765 mmHg 83%
    01:00 -2°C° 0.1 mm 8 m/s 765 mmHg 82%
    02:00 -4°C° 0.1 mm 8 m/s 765 mmHg 82%
    03:00 -4°C° 0 mm 8 m/s 765 mmHg 81%
    04:00 -3°C° 0 mm 7 m/s 765 mmHg 80%
    05:00 -3°C° 0 mm 6 m/s 765 mmHg 79%
    06:00 -3°C° 0 mm 6 m/s 766 mmHg 79%
    07:00 -3°C° 0 mm 6 m/s 766 mmHg 79%
    08:00 -3°C° 0 mm 6 m/s 766 mmHg 79%
    09:00 -2°C° 0 mm 6 m/s 766 mmHg 77%
    10:00 -2°C° 0 mm 6 m/s 766 mmHg 75%
    11:00 -1°C° 0 mm 6 m/s 767 mmHg 73%
    12:00 +1°C° 0 mm 6 m/s 766 mmHg 72%
    13:00 +1°C° 0 mm 6 m/s 766 mmHg 72%
    14:00 +2°C° 0 mm 6 m/s 766 mmHg 72%
    15:00 +1°C° 0 mm 5 m/s 766 mmHg 76%
    16:00 0°C° 0 mm 4 m/s 766 mmHg 80%
    17:00 0°C° 0 mm 4 m/s 766 mmHg 84%
    18:00 0°C° 0 mm 3 m/s 767 mmHg 85%
    19:00 0°C° 0 mm 3 m/s 767 mmHg 86%
    20:00 0°C° 0 mm 3 m/s 767 mmHg 87%
    21:00 0°C° 0 mm 3 m/s 767 mmHg 87%
    22:00 -1°C° 0 mm 3 m/s 767 mmHg 87%
    23:00 -1°C° 0 mm 3 m/s 767 mmHg 87%

    20 Dezembro, Quinta-feira

    Tempo Temperatura Precipitação Vento Pressão Humidade
    00:00 -1°C° 0 mm 3 m/s 768 mmHg 87%
    01:00 -1°C° 0 mm 3 m/s 768 mmHg 87%
    02:00 -1°C° 0 mm 2 m/s 768 mmHg 86%
    03:00 -1°C° 0 mm 2 m/s 768 mmHg 86%
    04:00 -1°C° 0 mm 2 m/s 768 mmHg 85%
    05:00 -1°C° 0 mm 2 m/s 768 mmHg 85%
    06:00 -1°C° 0 mm 2 m/s 768 mmHg 84%
    07:00 -1°C° 0 mm 2 m/s 768 mmHg 84%
    08:00 +1°C° 0 mm 1 m/s 769 mmHg 83%
    09:00 +2°C° 0 mm 1 m/s 769 mmHg 78%
    10:00 +3°C° 0 mm 1 m/s 769 mmHg 72%
    11:00 +4°C° 0 mm 1 m/s 769 mmHg 67%
    12:00 +5°C° 0 mm 1 m/s 769 mmHg 66%
    13:00 +5°C° 0 mm 1 m/s 768 mmHg 65%
    14:00 +6°C° 0 mm 1 m/s 768 mmHg 64%
    15:00 +5°C° 0 mm 1 m/s 768 mmHg 70%
    16:00 +4°C° 0 mm 1 m/s 768 mmHg 75%
    17:00 +2°C° 0 mm 2 m/s 768 mmHg 80%
    18:00 +2°C° 0 mm 2 m/s 768 mmHg 82%
    19:00 +1°C° 0 mm 2 m/s 768 mmHg 84%
    20:00 +1°C° 0 mm 2 m/s 768 mmHg 86%
    21:00 +2°C° 0 mm 1 m/s 768 mmHg 87%
    22:00 +2°C° 0 mm 1 m/s 768 mmHg 89%
    23:00 +2°C° 0 mm 1 m/s 768 mmHg 90%

    21 Dezembro, Sexta-feira

    Tempo Temperatura Precipitação Vento Pressão Humidade
    00:00 +2°C° 0 mm 1 m/s 768 mmHg 90%
    01:00 +2°C° 0 mm 1 m/s 767 mmHg 90%
    02:00 +2°C° 0 mm 1 m/s 767 mmHg 91%
    03:00 +2°C° 0 mm 1 m/s 767 mmHg 90%
    04:00 +2°C° 0 mm 1 m/s 766 mmHg 90%
    05:00 +2°C° 0 mm 1 m/s 766 mmHg 90%
    06:00 +2°C° 0 mm 1 m/s 766 mmHg 89%
    07:00 +2°C° 0 mm 1 m/s 766 mmHg 89%
    08:00 +2°C° 0 mm 1 m/s 766 mmHg 88%
    09:00 +4°C° 0 mm 1 m/s 766 mmHg 82%
    10:00 +4°C° 0 mm 2 m/s 766 mmHg 75%
    11:00 +5°C° 0 mm 2 m/s 766 mmHg 69%
    12:00 +6°C° 0 mm 2 m/s 765 mmHg 69%
    13:00 +6°C° 0 mm 2 m/s 765 mmHg 69%
    14:00 +7°C° 0 mm 2 m/s 765 mmHg 69%
    15:00 +6°C° 0 mm 2 m/s 765 mmHg 74%
    16:00 +5°C° 0 mm 2 m/s 765 mmHg 80%
    17:00 +4°C° 0 mm 2 m/s 765 mmHg 86%
    18:00 +3°C° 0.1 mm 2 m/s 765 mmHg 87%
    19:00 +3°C° 0.1 mm 2 m/s 765 mmHg 89%
    20:00 +2°C° 0.1 mm 3 m/s 766 mmHg 90%
    21:00 +1°C° 0 mm 3 m/s 766 mmHg 91%
    22:00 +1°C° 0 mm 3 m/s 766 mmHg 91%
    23:00 +1°C° 0 mm 3 m/s 765 mmHg 92%
    Mostrar mais